EA4GDE-1 Madrid ES current weather conditions

sailwx.info

Wind from 061 at 3 knots gusting 6

Air temperature 8.3° C
Dewpoint 1.7° C

Last reported at 2018-Jan-18 23:07 UTC.
Time now 2018-Jan-19 00:08 UTC

Location: N 40°26' W 003°42'.
View on Google Maps.

See reports from other nearby stations

  
Tides and Currents Weather Stations Pressure Air Temp Water Temp Dewpoint Dewpoint Depression Visibility Wind Speed Wind Dir Waves Ship Positions
date/time (UTC)wind fromknots sea level pressurealtimeterstation pressurevisibilityair tempwater tempwave heightnotes
2018-Jan-18 23:07 061 3 gusting 6 8.3
2018-Jan-18 23:02 047 3 gusting 6 8.3
2018-Jan-18 22:57 046 2 gusting 7 8.3
2018-Jan-18 22:52 047 3 gusting 7 8.9
2018-Jan-18 22:47 057 3 gusting 6 9.4
2018-Jan-18 22:42 054 1 gusting 4 10.0
2018-Jan-18 22:37 019 1 gusting 3 10.0
2018-Jan-18 22:32 014 0 gusting 3 10.0
2018-Jan-18 22:27 014 0 gusting 3 10.0
2018-Jan-18 22:22 014 0 gusting 3 10.0
2018-Jan-18 22:17 014 0 gusting 3 10.0
2018-Jan-18 22:12 014 1 gusting 3 10.0
2018-Jan-18 22:07 014 1 gusting 3 10.0
2018-Jan-18 22:02 014 1 gusting 6 10.0
2018-Jan-18 21:57 014 1 gusting 6 10.0
2018-Jan-18 21:52 014 2 gusting 6 10.0
2018-Jan-18 21:47 10.0
2018-Jan-18 21:42 344 2 gusting 4 10.0
2018-Jan-18 21:37 342 0 gusting 4 10.0
2018-Jan-18 21:32 343 0 gusting 5 10.0
2018-Jan-18 21:27 343 1 gusting 6 10.0
2018-Jan-18 21:22 342 3 gusting 6 10.0
2018-Jan-18 21:17 338 3 gusting 6 10.0
2018-Jan-18 21:12 342 2 gusting 4 10.0
2018-Jan-18 21:07 307 2 gusting 3 10.0
2018-Jan-18 21:02 302 1 gusting 4 10.0
2018-Jan-18 20:57 302 1 gusting 4 10.6
2018-Jan-18 20:52 302 2 gusting 4 10.6
2018-Jan-18 20:47 302 3 gusting 4 10.6
2018-Jan-18 20:42 301 2 gusting 4 10.6
2018-Jan-18 20:37 301 2 gusting 4 10.6
2018-Jan-18 20:32 301 1 gusting 3 11.1
2018-Jan-18 20:27 281 0 gusting 5 10.6
2018-Jan-18 20:22 281 1 gusting 5 11.1
2018-Jan-18 20:17 281 2 gusting 5 11.1
2018-Jan-18 20:12 281 1 gusting 5 11.1
2018-Jan-18 20:07 281 1 gusting 6 11.1
2018-Jan-18 20:02 281 3 gusting 6 11.1
2018-Jan-18 19:57 279 3 gusting 6 11.1
2018-Jan-18 19:52 284 2 gusting 5 11.1
2018-Jan-18 19:47 284 2 gusting 5 11.1
2018-Jan-18 19:42 277 1 gusting 3 11.1
2018-Jan-18 19:37 218 1 gusting 3 11.1
2018-Jan-18 19:32 218 1 gusting 3 11.1
2018-Jan-18 19:27 218 0 gusting 3 11.1
2018-Jan-18 19:22 218 0 gusting 3 11.1
2018-Jan-18 19:17 218 1 gusting 3 11.7
2018-Jan-18 19:12 218 1 gusting 5 11.7
2018-Jan-18 19:07 218 1 gusting 5 11.7
2018-Jan-18 19:02 218 1 gusting 5 11.7
2018-Jan-18 18:57 218 1 gusting 4 11.7
2018-Jan-18 18:52 218 2 gusting 5 11.7
2018-Jan-18 18:47 218 2 gusting 5 11.7
2018-Jan-18 18:42 218 2 gusting 5 11.7
2018-Jan-18 18:37 218 2 gusting 6 11.7
2018-Jan-18 18:32 218 3 gusting 6 11.7
2018-Jan-18 18:27 218 3 gusting 6 12.2
2018-Jan-18 18:22 221 2 gusting 5 12.2
2018-Jan-18 18:17 222 2 gusting 4 12.2
2018-Jan-18 18:12 222 3 gusting 4 12.2
2018-Jan-18 18:07 222 2 gusting 4 12.2
2018-Jan-18 18:02 222 1 gusting 3 12.2
2018-Jan-18 17:57 222 1 gusting 3 12.2
2018-Jan-18 17:52 222 1 gusting 3 12.2
2018-Jan-18 17:47 222 1 gusting 2 12.2
2018-Jan-18 17:42 222 1 gusting 3 12.2
2018-Jan-18 17:37 222 1 gusting 3 12.8
2018-Jan-18 17:32 222 1 gusting 4 12.8
2018-Jan-18 17:27 222 2 gusting 4 12.8
2018-Jan-18 17:22 222 2 gusting 4 12.8
2018-Jan-18 17:17 222 2 gusting 3 12.8
2018-Jan-18 17:12 222 2 gusting 3 13.3
2018-Jan-18 17:07 222 1 gusting 4 13.3
2018-Jan-18 17:02 222 2 gusting 4 13.3
2018-Jan-18 16:57 222 2 gusting 4 13.3
2018-Jan-18 16:52 222 1 gusting 3 13.3
2018-Jan-18 16:47 222 1 gusting 5 13.9
2018-Jan-18 16:42 222 2 gusting 5 13.9
2018-Jan-18 16:37 222 2 gusting 5 13.9
2018-Jan-18 16:32 225 1 gusting 4 13.9
2018-Jan-18 16:27 234 1 gusting 4 14.4
2018-Jan-18 16:22 234 1 gusting 3 14.4
2018-Jan-18 16:17 188 1 gusting 3 14.4
2018-Jan-18 16:12 188 1 gusting 4 14.4
2018-Jan-18 16:07 188 1 gusting 4 14.4
2018-Jan-18 16:02 188 1 gusting 5 14.4
2018-Jan-18 15:57 182 0 gusting 5 14.4
2018-Jan-18 15:52 180 1 gusting 5 14.4
2018-Jan-18 15:42 156 1 gusting 5 14.4
2018-Jan-18 15:37 234 1 gusting 5 14.4
2018-Jan-18 15:32 119 0 gusting 3 13.9
2018-Jan-18 15:27 119 0 gusting 3 13.9
2018-Jan-18 15:22 263 0 gusting 6 13.9
2018-Jan-18 15:17 263 2 gusting 6 13.3
2018-Jan-18 15:12 265 3 gusting 6 13.3
2018-Jan-18 15:07 226 2 gusting 5 13.3
2018-Jan-18 15:02 218 2 gusting 5 13.3
2018-Jan-18 14:57 254 2 gusting 5 13.3
2018-Jan-18 14:52 235 1 gusting 4 13.3
2018-Jan-18 14:47 190 1 gusting 5 13.3
2018-Jan-18 14:42 191 1 gusting 5 13.3
2018-Jan-18 14:37 191 1 gusting 6 13.3
2018-Jan-18 14:32 270 1 gusting 6 12.8
2018-Jan-18 14:27 270 1 gusting 6 12.8
2018-Jan-18 14:22 277 1 gusting 5 12.8
2018-Jan-18 14:17 203 2 gusting 5 12.8
2018-Jan-18 14:12 204 3 gusting 5 12.8
2018-Jan-18 14:07 205 2 gusting 5 12.8
2018-Jan-18 14:02 244 2 gusting 5 12.8
2018-Jan-18 13:57 259 2 gusting 6 12.8
2018-Jan-18 13:52 192 2 gusting 6 12.8
2018-Jan-18 13:47 212 2 gusting 6 12.2
2018-Jan-18 13:42 220 2 gusting 6 12.8
2018-Jan-18 13:37 185 3 gusting 6 12.8
2018-Jan-18 13:32 201 2 gusting 6 12.8
2018-Jan-18 13:27 142 0 gusting 6 12.8
2018-Jan-18 13:22 271 1 gusting 6 12.2
2018-Jan-18 13:17 254 1 gusting 5 12.2
2018-Jan-18 13:12 200 1 gusting 4 12.2
2018-Jan-18 13:07 200 0 gusting 4 12.2
2018-Jan-18 13:02 198 0 gusting 4 12.2
2018-Jan-18 12:57 175 1 gusting 4 12.2
2018-Jan-18 12:52 176 1 gusting 4 12.2
2018-Jan-18 12:47 159 1 gusting 3 12.2
2018-Jan-18 12:42 071 1 gusting 3 12.2
2018-Jan-18 12:37 071 0 gusting 3 12.2
2018-Jan-18 12:32 088 0 gusting 3 11.7
2018-Jan-18 12:27 120 1 gusting 3 11.7
2018-Jan-18 12:22 103 0 gusting 3 11.7
2018-Jan-18 12:17 094 0 gusting 3 11.1
2018-Jan-18 12:12 095 1 gusting 3 11.1
2018-Jan-18 12:07 095 1 gusting 3 11.1
2018-Jan-18 12:02 082 1 gusting 6 11.1
2018-Jan-18 11:57 084 1 gusting 6 10.6
2018-Jan-18 11:52 085 2 gusting 6 10.6
2018-Jan-18 11:47 103 1 gusting 6 10.6
2018-Jan-18 11:42 099 1 gusting 6 10.6
2018-Jan-18 11:37 100 1 gusting 6 10.6
2018-Jan-18 11:32 111 2 gusting 6 10.0
2018-Jan-18 11:27 099 1 gusting 3 10.0
2018-Jan-18 11:22 134 1 gusting 3 10.0
2018-Jan-18 11:17 078 1 gusting 3 10.0
2018-Jan-18 11:12 080 0 gusting 3 9.4
2018-Jan-18 11:07 057 1 gusting 3 9.4
2018-Jan-18 11:02 051 1 gusting 3 9.4
2018-Jan-18 10:57 098 1 gusting 3 9.4
2018-Jan-18 10:52 096 1 gusting 3 8.9
2018-Jan-18 10:47 090 1 gusting 5 8.9
2018-Jan-18 10:42 087 1 gusting 6 8.9
2018-Jan-18 10:37 088 2 gusting 6 8.9
2018-Jan-18 10:32 102 2 gusting 6 8.9
2018-Jan-18 10:27 092 2 gusting 6 8.9
2018-Jan-18 10:22 092 1 gusting 6 8.9
2018-Jan-18 10:17 119 1 gusting 6 8.3
2018-Jan-18 10:12 083 2 gusting 6 8.3
2018-Jan-18 10:07 087 2 gusting 6 7.8
2018-Jan-18 10:02 089 2 gusting 6 7.8
2018-Jan-18 09:57 079 3 gusting 6 7.8
2018-Jan-18 09:52 067 2 gusting 6 7.2
2018-Jan-18 09:47 052 2 gusting 6 7.2
2018-Jan-18 09:42 071 2 gusting 6 7.2
2018-Jan-18 09:37 058 1 gusting 5 7.2
2018-Jan-18 09:32 084 1 gusting 5 7.2
2018-Jan-18 09:27 028 2 gusting 6 7.2
2018-Jan-18 09:22 061 2 gusting 6 6.7
2018-Jan-18 09:17 065 2 gusting 8 6.7
2018-Jan-18 09:12 023 2 gusting 8 6.7
2018-Jan-18 09:07 067 4 gusting 8 6.1
2018-Jan-18 09:02 034 5 gusting 8 6.1
2018-Jan-18 08:57 032 4 gusting 8 6.1
2018-Jan-18 08:52 078 2 gusting 9 6.1
2018-Jan-18 08:47 040 3 gusting 9 5.6
2018-Jan-18 08:42 040 5 gusting 9 5.6
2018-Jan-18 08:37 064 6 gusting 9 5.0
2018-Jan-18 08:32 046 6 gusting 9 5.0
2018-Jan-18 08:27 051 3 gusting 7 5.0
2018-Jan-18 08:22 031 1 gusting 6 5.0
2018-Jan-18 08:17 053 2 gusting 8 5.0
2018-Jan-18 08:12 090 3 gusting 8 4.4
2018-Jan-18 08:07 042 4 gusting 9 4.4
2018-Jan-18 08:02 024 4 gusting 9 4.4
2018-Jan-18 07:57 075 4 gusting 9 4.4
2018-Jan-18 07:52 032 4 gusting 7 4.4
2018-Jan-18 07:47 044 3 gusting 7 4.4
2018-Jan-18 07:42 036 2 gusting 6 4.4
2018-Jan-18 07:37 055 1 gusting 6 5.0
2018-Jan-18 07:32 035 1 gusting 7 5.0
2018-Jan-18 07:27 066 3 gusting 8 4.4
2018-Jan-18 07:22 058 4 gusting 11 4.4
2018-Jan-18 07:17 039 6 gusting 11 4.4
2018-Jan-18 07:12 042 5 gusting 9 4.4
2018-Jan-18 07:07 032 3 gusting 7 5.0
2018-Jan-18 07:02 050 3 gusting 7 5.0
2018-Jan-18 06:57 081 2 gusting 7 5.0
2018-Jan-18 06:52 046 2 gusting 6 5.0
2018-Jan-18 06:47 060 1 gusting 6 5.0
2018-Jan-18 06:42 069 2 gusting 6 5.0
2018-Jan-18 06:37 068 1 gusting 6 5.0
2018-Jan-18 06:32 101 1 gusting 8 5.0
2018-Jan-18 06:27 080 3 gusting 8 5.0
2018-Jan-18 06:22 027 4 gusting 8 5.0
2018-Jan-18 06:17 036 5 gusting 9 5.0
2018-Jan-18 06:12 046 5 gusting 10 5.0
2018-Jan-18 06:07 040 6 gusting 10 5.0
2018-Jan-18 06:02 036 6 gusting 10 5.0
2018-Jan-18 05:57 036 4 gusting 6 5.6
2018-Jan-18 05:52 038 3 gusting 8 5.6
2018-Jan-18 05:47 065 4 gusting 8 5.6
2018-Jan-18 05:42 038 5 gusting 8 5.6
2018-Jan-18 05:37 064 4 gusting 7 5.6
2018-Jan-18 05:32 026 3 gusting 6 5.6
2018-Jan-18 05:27 039 2 gusting 8 5.6
2018-Jan-18 05:22 039 3 gusting 8 5.6
2018-Jan-18 05:17 063 4 gusting 8 5.6
2018-Jan-18 05:12 034 4 gusting 8 5.6
2018-Jan-18 05:07 049 4 gusting 8 5.6
2018-Jan-18 05:02 042 4 gusting 8 5.6
2018-Jan-18 04:57 040 4 gusting 7 5.6
2018-Jan-18 04:52 019 4 gusting 7 5.6
2018-Jan-18 04:47 050 4 gusting 7 5.6
2018-Jan-18 04:42 019 3 gusting 6 5.6
2018-Jan-18 04:37 038 1 gusting 4 5.6
2018-Jan-18 04:32 064 0 gusting 3 5.6
2018-Jan-18 04:27 063 0 gusting 5 5.6
2018-Jan-18 04:22 045 1 gusting 8 5.6
2018-Jan-18 04:17 053 3 gusting 8 5.6
2018-Jan-18 04:12 050 3 gusting 7 5.6
2018-Jan-18 04:07 055 3 gusting 8 5.6
2018-Jan-18 04:02 043 4 gusting 8 5.6
2018-Jan-18 03:57 043 4 gusting 6 5.6
2018-Jan-18 03:52 036 2 gusting 5 5.6
2018-Jan-18 03:47 030 1 gusting 7 5.6
2018-Jan-18 03:42 009 1 gusting 9 5.6
2018-Jan-18 03:37 047 3 gusting 10 5.6
2018-Jan-18 03:32 035 6 gusting 10 5.6
2018-Jan-18 03:27 028 6 gusting 10 5.6
2018-Jan-18 03:22 019 5 gusting 10 5.6
2018-Jan-18 03:17 013 3 gusting 6 5.6
2018-Jan-18 03:12 048 3 gusting 6 5.6
2018-Jan-18 03:07 042 2 gusting 6 5.6
2018-Jan-18 03:02 071 1 gusting 6 5.6
2018-Jan-18 02:57 057 1 gusting 6 6.1
2018-Jan-18 02:52 074 2 gusting 4 6.1
2018-Jan-18 02:47 057 1 gusting 6 6.1
2018-Jan-18 02:42 051 2 gusting 8 6.1
2018-Jan-18 02:37 065 3 gusting 8 6.1
2018-Jan-18 02:32 051 4 gusting 8 6.1
2018-Jan-18 02:27 064 4 gusting 7 6.1
2018-Jan-18 02:22 030 3 gusting 7 6.1
2018-Jan-18 02:17 034 3 gusting 6 6.1
2018-Jan-18 02:12 051 2 gusting 6 6.1
2018-Jan-18 02:07 044 2 gusting 6 6.1
2018-Jan-18 02:02 049 3 gusting 6 6.1
2018-Jan-18 01:57 058 3 gusting 6 6.1
2018-Jan-18 01:52 029 3 gusting 7 6.1
2018-Jan-18 01:47 038 4 gusting 7 6.1
2018-Jan-18 01:42 045 4 gusting 7 6.1
2018-Jan-18 01:37 070 4 gusting 6 6.7
2018-Jan-18 01:32 041 1 gusting 5 6.7
2018-Jan-18 01:27 036 6.7
2018-Jan-18 01:22 054 1 gusting 4 6.7
2018-Jan-18 01:17 054 1 gusting 6 6.7
2018-Jan-18 01:12 036 1 gusting 6 6.7
2018-Jan-18 01:07 094 1 gusting 6 6.7
2018-Jan-18 01:02 102 1 gusting 5 6.7
2018-Jan-18 00:57 083 2 gusting 5 6.7
2018-Jan-18 00:52 061 2 gusting 6 6.7
2018-Jan-18 00:47 064 2 gusting 6 6.7
2018-Jan-18 00:42 068 2 gusting 6 7.2
2018-Jan-18 00:37 096 2 gusting 6 7.2
2018-Jan-18 00:32 075 1 gusting 6 7.2
2018-Jan-18 00:27 096 2 gusting 8 7.2
2018-Jan-18 00:22 082 3 gusting 8 7.2
2018-Jan-18 00:17 047 2 gusting 8 7.2
2018-Jan-18 00:12 086 1 gusting 5 7.8
2018-Jan-18 00:07 068 1 gusting 7 7.8
2018-Jan-18 00:02 073 1 gusting 7 7.8
2018-Jan-17 23:57 083 2 gusting 7 7.8
2018-Jan-17 23:52 096 3 gusting 7 7.8
2018-Jan-17 23:47 063 2 gusting 6 7.8
2018-Jan-17 23:42 114 1 gusting 3 7.8
2018-Jan-17 23:37 096 0 gusting 6 7.8
2018-Jan-17 23:32 039 1 gusting 6 8.3
2018-Jan-17 23:27 051 2 gusting 6 8.3
2018-Jan-17 23:22 061 1 gusting 4 8.3
2018-Jan-17 23:17 028 0 gusting 6 8.3
2018-Jan-17 23:12 066 1 gusting 6 8.3
2018-Jan-17 23:07 063 2 gusting 6 8.3
2018-Jan-17 23:02 059 2 gusting 4 8.3
2018-Jan-17 22:57 063 1 gusting 4 8.3
2018-Jan-17 22:52 048 0 gusting 6 8.3
2018-Jan-17 22:47 046 0 gusting 6 8.3
2018-Jan-17 22:42 067 1 gusting 6 8.3
2018-Jan-17 22:37 066 2 gusting 6 8.3
2018-Jan-17 22:32 051 1 gusting 7 8.3
2018-Jan-17 22:27 087 2 gusting 7 8.3
2018-Jan-17 22:22 052 2 gusting 7 8.3